DELTA 1 DEB, 10650

Orbit data source: Space-Track

DELTA 1 DEB, 10650 is space debris in LEO originally from a launch on Thu, 29 Jul 1976 UTC launched from the Air Force Western Test Range (AFWTR). Debris objects in space refer to the collection of defunct objects orbiting the Earth. Examples of debris include non-operational satellites, rocket bodies, and fragments generated from explosions, collisions, or faulty payload assembly.

Loading next visibility...
Identifier
10650, 1976-077L
Orbit
LEO
Country
Flag of USUS
Related business
Manufacturer
Unknown
Mission
Spacecraft
Bus & Motor
Unknown
Mass
Unknown
Launch date (UTC)
1976-07-29 (49 years ago)
Launch vehicle
Unknown
Launch site
Air Force Western Test Range (AFWTR)
Object type
Payload
Rocket body
Debris
Shape & HBR
Unknown shape, 0.1 m
Radar Cross Section
Medium (>0.1 m² and <1 m²)

Expand to show TLE details & history
Last TLE update: 13 hours ago

TLE from 13 hours ago
0 DELTA 1 DEB
1 10650U 76077L   25292.34328167  .00000158  00000-0  31317-2 0  9994
2 10650 102.0841  55.2514 0436455  36.1672  27.8586 11.57457055 83258
Epoch: 2025-10-19T08:14Z
TLE epoch observation values (Epoch: 2025-10-19T08:14:19.536Z)
Latitude
63.80137°
Longitude
-122.04876°
Altitude
1,572.968 km
Speed
7.221 km/s
True Right ascension
01h 58m 22s
True Declination
63° 40' 44"
Sunlit
Object was in partial shadow at epoch
Visualization orbit readout
Latitude
Unknown
Longitude
Unknown
Altitude
Unknown
Speed
Unknown
Apparent Right ascension
Unknown
Apparent Declination
Unknown
Sunlit
N/A
Visualization observer readout
Local Sidereal Time
15:38:23
Azimuth
Unknown
Elevation
Unknown
Doppler factor
Unknown
Orbital elements
Apogee altitude
2,235.032 km
Perigee altitude
1,514.622 km
Semi-major axis
8,252.964 km
Eccentricity
0.04365
Inclination
102.0841°
RAAN
55.2514°
Arg. of periapsis
36.1672°
True anomaly
30.31314°
Mean anomaly
27.8586°
Eccentric anomaly
29.07378°
Mean motion
2.89486 °/min
Orbital period
124.36 mins
BSTAR
0.0031317
Loading maneuver chart data...
Computing Atmospheric mass density...
Loading historical data...
Loading historical data...
Loading historical data...
Loading historical data...
Loading historical data...
Loading historical data...
Loading historical data...

Documentation

Showing up to 5 results
|